sat.trackr.live / text

‹ back to catalog

STARLINK-2500

NORAD 48485 · 2021-040BK

PAYLOAD ACTIVE UNKNOWN

§ Identity

Operator
Country
US
Launch date
2021-05-09
Launch site
AFETR
Launch vehicle
Mass (kg)
RCS (m²)

Purposes: comms

External: N2YO · Heavens-Above · Gunter

§ Orbital elements

Epoch: 2026-09-19T18:39:38.210112Z

Period
94.01 min
Inclination
53.1599°
Eccentricity
0.0001265
Mean motion
15.31695437 rev/d
Perigee alt
469.9 km
Apogee alt
471.6 km
Semi-major
6,848.9 km
B*
-7.1362e-5
RAAN
10.4812°
Arg perigee
79.3663°
Mean anomaly
280.7481°
Rev number
29,620

§ Raw data

STARLINK-25001 48485U 21040BK  26262.77752558 -.00002579  00000+0 -71362-4 0  99972 48485  53.1599  10.4812 0001265  79.3663 280.7481 15.31695437296200

JSON: /api/v1/satellites/48485 · /tle

For live sub-satellite position, see the globe view (requires WebGL).

§ Visibility from observer

Set your observer location to see the next 7 days of passes ≥ 10°. The values pass through the URL so the page stays shareable.

No JS? Fill the form by hand. The geolocation button needs JavaScript.